Medicine Hat, Alberta

5:20 AM MST on December 11, 2017 (GMT -0700)
Medicine Hat

Weather History for CYXH - September, 2013

Change the Weather History Date:

Tuesday, September 24, 2013

  Actual Average Record
Temperature  
Mean Temperature 34 °F -  
Max Temperature 59 °F 60 °F 93 °F (2001)
Min Temperature 10 °F 34 °F 6 °F (2014)
Degree Days  
Heating Degree Days 30    
Moisture  
Dew Point 34 °F    
Average Humidity 62    
Maximum Humidity 94    
Minimum Humidity 32    
Precipitation  
Precipitation 0.00 in 0.03 in - ()
Sea Level Pressure  
Sea Level Pressure 29.84 in    
Wind  
Wind Speed 9 mph ()    
Max Wind Speed 15 mph    
Max Gust Speed 22 mph    
Visibility 11.6 miles    
Events Rain    
Averages and records for this station are not official NWS values.
T = Trace of Precipitation, MM = Missing Value Source: Averaged Metar Reports

Daily Weather History Graph

Daily Weather History Graph

Search for Another Location

Airport or City:

Trip Planner

Search our weather history database for the weather conditions in past years. The results will help you decide how hot, cold, wet, or windy it might be!

Date:

Astronomy

Sep. 24, 2013 Rise Set
Actual Time 7:12 AM MDT 7:15 PM MDT
Civil Twilight 6:40 AM MDT 7:47 PM MDT
Nautical Twilight 6:02 AM MDT 8:25 PM MDT
Astronomical Twilight 5:23 AM MDT 9:04 PM MDT
Moon 10:05 PM MDT (9/24) 1:00 PM MDT (9/24)
Length of Visible Light 13h 07m
Length of Day
12h 02m
Waning Gibbous, 72% of the Moon is Illuminated
Sep 24
Waning Gibbous
Sep 26
Last Quarter
Oct 4
New
Oct 11
First Quarter
Oct 18
Full

Hourly Weather History & Observations

Time (MDT) Temp. Windchill Dew Point Humidity Pressure Visibility Wind Dir Wind Speed Gust Speed Precip Events Conditions
12:00 AM 13 °F - 11 °F 85% 30.16 in - South 8.1 mph - -  
12:00 AM 48.2 °F - 37.4 °F 66% 29.77 in 9.0 mi SSW 15.0 mph 20.7 mph N/A   Clear
1:00 AM 46.4 °F 40.4 °F 37.4 °F 71% 29.78 in 9.0 mi SSW 13.8 mph - N/A   Clear
2:00 AM 46.4 °F 40.4 °F 37.4 °F 71% 29.79 in 9.0 mi SSW 13.8 mph 21.9 mph N/A   Clear
3:00 AM 46.4 °F 41.1 °F 37.4 °F 71% 29.79 in 9.0 mi SSW 11.5 mph - N/A   Clear
4:00 AM 46.4 °F 41.5 °F 37.4 °F 71% 29.81 in 9.0 mi SSW 10.4 mph 17.3 mph N/A   Clear
5:00 AM 46.4 °F 41.1 °F 37.4 °F 71% 29.81 in 9.0 mi SSW 11.5 mph - N/A   Clear
6:00 AM 15 °F - 14 °F 93% 30.15 in - WSW 9.2 mph - -  
6:00 AM 44.6 °F 39.2 °F 37.4 °F 76% 29.82 in 9.0 mi SSW 10.4 mph - N/A   Clear
7:00 AM 42.8 °F 37.5 °F 37.4 °F 81% 29.83 in 30.0 mi SSW 9.2 mph - N/A   Partly Cloudy
8:00 AM 41.0 °F 35.8 °F 37.4 °F 87% 29.85 in 30.0 mi WSW 8.1 mph - N/A   Partly Cloudy
9:00 AM 48.2 °F - 37.4 °F 66% 29.85 in 30.0 mi SW 10.4 mph - N/A   Partly Cloudy
10:00 AM 55.4 °F - 39.2 °F 54% 29.84 in 30.0 mi SW 15.0 mph - N/A   Scattered Clouds
11:00 AM 57.2 °F - 39.2 °F 51% 29.83 in 30.0 mi SW 12.7 mph 19.6 mph N/A   Scattered Clouds
12:00 PM 13 °F - 12 °F 94% 30.19 in - West 10.4 mph - -  
12:00 PM 62.6 °F - 37.4 °F 39% 29.81 in 30.0 mi WSW 10.4 mph 18.4 mph N/A   Scattered Clouds
1:00 PM 64.4 °F - 33.8 °F 32% 29.78 in 30.0 mi West 6.9 mph - N/A   Scattered Clouds
2:00 PM 62.6 °F - 35.6 °F 37% 29.78 in 30.0 mi West 9.2 mph - N/A   Mostly Cloudy
3:00 PM 62.6 °F - 35.6 °F 37% 29.77 in 30.0 mi West 12.7 mph - N/A   Overcast
4:00 PM 62.6 °F - 33.8 °F 34% 29.75 in 30.0 mi West 9.2 mph - N/A   Overcast
5:00 PM 60.8 °F - 35.6 °F 39% 29.75 in 15.0 mi West 5.8 mph - N/A   Overcast
5:55 PM 59.0 °F - 35.6 °F 42% 29.77 in 15.0 mi WSW 12.7 mph 19.6 mph N/A Rain Light Rain Showers
6:00 PM 13 °F - 11 °F 89% 30.25 in - NNW 2.3 mph - -  
6:00 PM 59.0 °F - 35.6 °F 42% 29.77 in 15.0 mi WSW 5.8 mph 19.6 mph N/A Rain Light Rain Showers
6:44 PM 59.0 °F - 37.4 °F 45% 29.76 in 15.0 mi SSE 11.5 mph - N/A   Overcast
7:00 PM 57.2 °F - 39.2 °F 51% 29.77 in 15.0 mi SE 8.1 mph - N/A   Overcast
8:00 PM 55.4 °F - 39.2 °F 54% 29.77 in 15.0 mi SE 5.8 mph - N/A   Overcast
9:00 PM 53.6 °F - 42.8 °F 67% 29.78 in 15.0 mi SSE 6.9 mph - N/A   Overcast
10:00 PM 51.8 °F - 42.8 °F 71% 29.77 in 9.0 mi SSE 4.6 mph - N/A   Scattered Clouds
11:00 PM 51.8 °F - 44.6 °F 76% 29.75 in 9.0 mi ESE 5.8 mph - N/A   Mostly Cloudy